Wind_Speed
16 17 13 19 23 28 30 30 31 19 18 16 13 12 11 7 5 5 6 6 5 7 6 8 7 9 11 13 13 13 12 12 11 10 10 11 8 7 7 7 6 6 6
21 26 28 29 29 31 31 32 31 33 25 19 15 12 11 8 5 5 5 6 6 7 9 10 9 10 11 13 15 14 13 12 10 11 11 8 8 8 8 7 7 6 7
22 28 30 32 36 37 36 39 38 17 18 20 16 13 12 10 7 5 5 6 8 8 8 8 9 11 12 14 15 15 14 13 12 11 10 7 9 10 10 8 7 7 8
24 25 30 35 38 38 37 34 18 15 18 19 18 13 12 10 9 8 7 6 8 9 7 6 7 11 14 16 16 17 16 15 14 12 9 9 11 11 10 9 7 8 8
35 35 35 37 39 36 36 34 19 19 20 19 17 14 13 11 10 9 8 7 8 10 9 11 10 14 16 17 18 18 17 15 14 12 9 10 12 12 11 9 7 8 8
29 33 31 33 35 35 34 32 28 24 24 18 16 15 13 10 10 9 11 8 8 8 7 13 14 17 18 20 20 20 19 17 16 13 10 12 13 12 11 9 7 8 8
31 30 27 27 30 30 29 31 32 27 30 25 19 18 15 13 11 12 11 11 10 15 12 10 4 20 18 19 20 22 21 18 17 13 12 14 13 12 10 9 8 8 8
34 35 32 30 32 29 27 28 27 27 24 25 26 22 18 16 14 13 11 12 13 12 12 11 10 12 18 21 22 23 22 19 18 15 13 15 12 12 11 10 8 8 8
39 38 36 37 36 36 29 28 31 27 24 21 24 26 22 21 17 16 14 15 14 12 13 13 10 11 24 24 23 23 24 22 20 18 14 16 12 12 11 11 9 7 9
43 43 39 37 41 38 33 31 35 30 24 25 25 23 27 26 23 21 17 16 13 12 13 12 12 14 22 24 26 24 25 24 21 19 15 17 14 13 10 11 10 8 9
43 45 44 40 41 38 33 35 35 36 23 27 27 26 25 28 23 21 16 19 15 12 13 13 15 15 23 30 30 27 28 25 23 19 16 18 15 13 11 10 10 8 8
50 47 42 40 42 39 37 37 38 40 41 30 27 30 23 24 25 22 22 20 15 14 13 12 13 15 29 31 34 29 29 26 23 18 18 18 17 14 13 11 10 9 8
55 53 49 44 40 45 39 40 39 39 37 38 31 34 30 26 21 23 23 19 18 15 13 14 8 11 32 34 32 33 30 27 25 20 18 19 18 16 13 12 11 11 8
59 58 56 52 45 44 43 43 41 38 36 40 31 38 37 30 26 25 24 20 19 16 14 13 8 12 31 31 36 35 32 28 26 22 21 19 19 17 15 14 13 12 9
58 59 58 56 53 45 47 46 46 42 35 36 27 38 37 36 34 30 26 23 21 18 16 14 11 10 23 35 36 35 32 30 28 25 22 20 19 20 16 15 14 12 10
60 57 55 55 57 52 48 50 48 45 39 37 39 38 38 40 39 38 31 28 24 20 22 19 17 18 18 30 34 35 34 32 31 28 24 23 20 20 18 16 15 13 11
64 61 58 54 53 54 50 52 51 49 44 42 41 42 39 41 39 41 32 31 27 27 29 28 25 21 22 30 35 37 36 35 33 30 27 25 23 21 20 18 16 15 13
72 66 61 59 55 53 53 53 55 52 49 45 43 51 45 38 36 43 35 35 40 33 34 30 29 24 23 27 41 40 39 38 36 33 30 28 27 24 22 20 18 16 15
73 76 70 63 60 58 56 55 56 56 52 48 48 54 50 47 40 41 41 35 37 34 35 35 32 28 25 25 42 44 43 42 39 35 33 30 30 28 25 23 20 19 17
63 74 77 71 65 63 60 58 59 61 57 57 44 45 52 53 47 42 40 42 45 39 40 38 34 34 28 27 31 51 49 47 42 38 35 33 31 31 29 25 23 22 20
45 55 72 79 73 67 66 63 62 65 62 60 57 54 54 54 48 46 43 42 41 29 40 46 33 35 29 35 32 37 53 50 47 41 37 35 33 32 32 30 27 26 24
51 48 56 74 80 74 69 69 66 67 65 65 60 52 55 53 52 46 47 45 41 37 38 41 34 42 38 39 38 31 37 53 50 43 40 37 35 34 33 32 31 30 27
32 47 54 62 76 82 74 72 71 69 70 69 67 65 65 59 55 49 49 48 44 43 28 36 31 34 38 38 41 36 34 42 48 45 42 40 39 37 36 35 35 34 31
29 29 33 51 62 78 84 75 75 73 72 72 72 74 55 51 52 50 50 50 48 48 30 35 29 33 39 40 34 32 36 34 44 41 44 42 41 40 39 39 38 36 35
26 29 30 32 44 64 79 83 78 77 75 75 75 73 70 60 62 59 57 53 50 50 39 30 31 39 33 34 29 31 40 38 37 39 42 45 42 44 41 42 41 40 38
26 25 27 25 30 42 64 80 81 81 78 77 78 74 70 69 62 61 62 62 53 51 48 32 34 29 33 34 28 27 38 45 43 43 48 48 44 45 44 42 42 42 40
Wind_Direction
253 253 275 294 299 302 304 310 313 265 261 261 260 266 267 266 271 293 299 297 312 298 258 245 232 216 206 207 200 191 193 201 190 189 190 187 194 188 181 182 164 153 149
273 273 279 283 290 294 301 308 306 302 241 248 246 248 254 253 243 261 273 253 290 288 290 263 227 198 194 195 194 187 192 186 181 183 185 197 195 187 180 180 162 146 139
264 268 276 281 286 288 293 302 306 253 238 241 241 235 236 232 228 237 264 276 281 281 285 271 231 191 194 186 184 188 187 182 180 190 190 196 201 188 179 171 155 145 135
263 266 271 271 278 284 296 306 273 213 229 233 232 226 225 223 217 226 244 263 271 276 292 280 236 204 192 188 186 187 185 181 182 188 184 197 197 189 176 170 158 146 133
253 257 256 261 272 277 288 302 223 219 228 223 218 219 218 210 211 216 230 241 253 270 274 289 267 216 189 191 189 188 185 183 183 186 191 203 192 185 176 172 155 148 137
261 266 263 258 267 280 287 283 254 220 221 225 215 214 222 213 220 223 231 230 242 267 271 267 259 213 200 195 192 190 189 184 187 186 196 202 190 183 179 175 154 152 142
265 261 260 262 267 282 285 277 258 227 223 224 221 221 221 222 218 226 228 225 231 231 253 271 228 219 197 201 195 192 189 188 191 189 201 196 188 183 182 181 159 154 149
266 269 264 263 264 273 277 275 243 226 228 225 231 223 220 225 219 224 233 232 235 242 258 262 243 249 210 201 200 196 191 191 195 194 203 193 189 184 186 187 168 156 154
263 267 266 263 255 267 265 266 255 217 224 226 231 236 225 223 218 221 221 238 234 239 248 253 254 214 211 204 201 199 192 195 195 197 202 193 191 189 193 191 178 163 160
265 268 269 264 262 265 262 257 247 211 211 226 232 229 229 224 219 222 225 232 236 238 245 248 242 235 220 202 200 198 192 195 195 198 203 193 192 192 196 196 187 173 167
261 262 263 260 261 259 256 259 256 239 219 215 222 223 231 229 227 223 227 221 229 246 248 263 245 245 213 212 198 194 189 194 197 200 203 194 196 193 197 203 197 187 175
256 256 257 255 252 250 246 249 251 253 245 204 221 223 212 223 217 222 227 238 235 246 253 254 254 255 210 218 199 193 190 193 197 202 200 201 203 197 198 205 208 203 185
256 256 254 252 246 248 242 243 248 250 249 226 225 227 224 225 210 217 223 227 234 237 253 243 234 249 202 209 200 189 190 194 196 194 198 204 207 201 201 205 214 211 203
254 256 256 252 247 241 242 240 241 243 247 247 239 225 230 229 221 221 220 218 223 227 236 246 254 236 207 213 200 188 191 194 195 194 201 204 206 205 203 205 216 211 213
252 253 254 253 249 242 238 238 237 238 237 246 218 228 231 228 229 224 223 218 217 219 227 234 233 234 199 194 188 190 194 196 198 199 202 205 206 207 205 208 218 213 215
247 248 247 248 249 247 235 235 234 233 235 229 242 221 223 229 227 229 222 228 226 219 226 238 234 217 225 207 189 197 198 199 201 203 204 207 207 207 206 209 217 217 216
241 240 242 240 241 243 238 232 233 228 228 228 229 219 227 226 226 225 222 227 225 214 229 228 232 228 222 219 199 204 205 204 205 207 209 212 209 207 207 213 216 219 218
243 237 234 235 234 232 233 229 230 227 225 224 224 224 217 216 219 221 208 221 230 220 216 226 231 227 230 218 203 207 210 210 209 209 214 215 214 209 209 214 219 219 220
249 240 234 228 228 228 226 224 224 227 218 219 218 226 215 213 210 214 217 218 219 213 220 218 228 230 230 231 213 208 213 214 213 211 216 215 217 213 212 213 220 221 221
259 249 238 230 226 223 221 219 218 223 221 216 213 224 224 220 220 223 219 219 223 218 216 222 231 233 230 231 221 213 213 215 214 213 216 218 217 216 216 213 216 224 224
260 258 247 232 225 223 219 217 215 217 221 218 221 224 226 225 223 225 225 230 230 207 217 218 209 217 218 241 225 217 222 217 217 213 216 220 219 219 219 217 217 224 227
260 253 252 244 227 221 222 217 215 214 215 217 214 208 223 225 228 225 227 229 233 224 218 221 225 212 218 228 222 233 229 219 216 217 215 218 221 221 221 223 220 223 227
281 260 252 248 240 224 218 220 216 214 212 216 212 215 221 222 226 224 226 229 230 229 210 212 215 208 215 224 228 221 230 226 214 215 217 218 222 221 222 223 224 226 226
300 285 269 252 245 235 220 219 218 214 213 213 214 210 209 211 220 222 227 225 228 230 237 228 223 217 212 221 217 224 219 217 220 219 218 222 222 226 224 223 225 227 230
301 287 283 269 250 239 230 217 219 216 213 213 215 217 218 215 219 218 223 227 226 229 220 208 235 223 219 220 216 216 215 208 213 215 221 231 221 225 226 222 223 228 232
304 295 287 277 260 244 233 225 215 218 214 212 214 217 217 216 221 216 218 225 225 225 222 222 213 199 207 212 207 212 216 213 208 212 216 220 224 224 227 226 225 229 231
Height
5836 5836 5836 5837 5839 5837 5836 5838 5838 5840 5843 5844 5842 5842 5845 5846 5846 5847 5847 5847 5848 5850 5851 5853 5854 5856 5858 5860 5862 5864 5867 5870 5871 5873 5875 5877 5877 5878 5878 5879 5879 5880 5880
5833 5834 5835 5835 5835 5834 5833 5833 5835 5837 5839 5842 5841 5841 5843 5844 5844 5846 5847 5847 5848 5849 5850 5852 5853 5855 5858 5860 5862 5864 5867 5870 5872 5873 5875 5876 5877 5878 5879 5879 5880 5880 5880
5830 5831 5830 5831 5831 5832 5832 5831 5830 5830 5836 5839 5840 5839 5841 5843 5843 5844 5845 5846 5846 5849 5850 5852 5853 5854 5857 5859 5862 5864 5867 5870 5872 5873 5875 5876 5878 5879 5879 5880 5880 5880 5880
5825 5827 5827 5827 5826 5828 5828 5827 5825 5827 5833 5837 5838 5837 5838 5840 5841 5843 5844 5845 5845 5846 5849 5851 5853 5854 5856 5858 5861 5864 5867 5870 5872 5873 5874 5876 5877 5878 5880 5880 5881 5881 5881
5820 5820 5821 5823 5824 5825 5826 5829 5824 5825 5828 5832 5833 5834 5837 5837 5838 5840 5841 5844 5844 5844 5847 5849 5851 5854 5855 5858 5860 5863 5866 5869 5871 5873 5874 5876 5877 5879 5880 5880 5881 5881 5882
5815 5814 5815 5819 5820 5821 5823 5825 5825 5823 5824 5828 5830 5831 5833 5834 5836 5838 5840 5842 5843 5844 5845 5848 5848 5851 5853 5856 5859 5861 5865 5868 5870 5872 5874 5877 5878 5879 5880 5880 5881 5882 5883
5808 5808 5810 5813 5815 5816 5817 5819 5818 5819 5821 5823 5825 5827 5829 5831 5833 5836 5838 5840 5841 5842 5843 5843 5845 5848 5849 5854 5857 5860 5864 5867 5870 5872 5874 5877 5878 5879 5880 5881 5882 5883 5884
5802 5802 5803 5806 5809 5810 5813 5814 5815 5816 5818 5819 5822 5823 5825 5828 5830 5834 5835 5837 5838 5840 5841 5842 5843 5845 5847 5852 5854 5858 5863 5866 5869 5872 5874 5876 5878 5879 5880 5882 5883 5883 5884
5792 5793 5796 5798 5802 5803 5807 5808 5810 5812 5815 5816 5818 5820 5821 5824 5827 5830 5831 5832 5834 5836 5839 5841 5842 5843 5846 5850 5852 5857 5861 5864 5868 5871 5874 5875 5877 5879 5880 5882 5883 5884 5884
5782 5783 5785 5790 5792 5795 5798 5801 5802 5804 5808 5812 5814 5814 5816 5819 5822 5826 5826 5829 5831 5833 5836 5839 5839 5840 5844 5846 5849 5854 5859 5863 5866 5870 5872 5874 5877 5878 5880 5882 5883 5884 5884
5771 5775 5776 5780 5784 5786 5790 5793 5794 5796 5801 5806 5809 5810 5811 5813 5818 5821 5824 5825 5828 5830 5833 5835 5836 5838 5841 5843 5847 5851 5857 5861 5865 5868 5871 5873 5875 5877 5879 5881 5883 5884 5884
5760 5764 5766 5769 5775 5776 5781 5783 5786 5789 5792 5798 5803 5805 5807 5809 5813 5818 5821 5820 5824 5827 5829 5831 5831 5831 5835 5839 5843 5847 5854 5859 5863 5866 5869 5872 5874 5876 5878 5881 5883 5884 5884
5748 5750 5754 5759 5764 5766 5771 5774 5777 5781 5784 5789 5794 5798 5801 5804 5807 5812 5815 5816 5820 5824 5825 5826 5828 5827 5829 5836 5839 5844 5851 5857 5860 5864 5867 5870 5872 5875 5877 5879 5882 5883 5884
5736 5738 5742 5747 5753 5757 5760 5764 5767 5773 5777 5780 5785 5791 5795 5799 5803 5808 5810 5812 5816 5820 5821 5820 5822 5824 5826 5831 5836 5843 5849 5854 5858 5861 5865 5868 5870 5873 5875 5878 5880 5882 5884
5718 5724 5728 5734 5740 5747 5750 5753 5758 5763 5770 5772 5779 5784 5788 5792 5797 5802 5806 5809 5812 5816 5818 5820 5821 5823 5825 5828 5835 5841 5847 5850 5854 5858 5862 5865 5868 5871 5874 5876 5879 5881 5882
5699 5705 5712 5716 5724 5731 5740 5743 5747 5754 5762 5766 5769 5775 5780 5786 5791 5797 5801 5804 5809 5812 5815 5818 5821 5823 5825 5828 5833 5839 5843 5847 5851 5855 5859 5863 5866 5869 5872 5875 5877 5879 5881
5676 5685 5693 5701 5706 5715 5724 5732 5737 5744 5752 5757 5761 5766 5772 5778 5783 5790 5795 5799 5804 5808 5804 5815 5817 5820 5824 5825 5829 5836 5840 5844 5848 5852 5857 5860 5863 5866 5870 5873 5875 5877 5880
5656 5664 5673 5683 5691 5698 5708 5719 5725 5732 5741 5747 5751 5758 5765 5770 5775 5781 5787 5790 5795 5801 5807 5810 5812 5815 5820 5822 5824 5830 5835 5840 5844 5848 5853 5857 5860 5864 5867 5870 5873 5875 5877
5637 5646 5656 5663 5673 5680 5691 5702 5712 5720 5730 5738 5742 5748 5755 5761 5767 5774 5778 5784 5789 5795 5800 5804 5803 5809 5815 5818 5820 5824 5829 5834 5839 5843 5848 5853 5857 5860 5864 5867 5870 5872 5874
5617 5623 5633 5647 5654 5663 5673 5684 5696 5704 5715 5726 5731 5735 5744 5751 5757 5765 5771 5775 5779 5786 5794 5797 5798 5803 5809 5812 5813 5817 5821 5826 5832 5838 5844 5848 5852 5856 5860 5863 5866 5870 5872
5602 5603 5609 5623 5637 5647 5655 5668 5680 5690 5700 5711 5721 5727 5734 5741 5748 5756 5762 5765 5770 5777 5784 5789 5789 5797 5801 5805 5807 5811 5814 5819 5826 5833 5839 5844 5848 5851 5855 5859 5863 5866 5869
5584 5587 5590 5600 5615 5630 5641 5651 5663 5674 5685 5696 5706 5713 5722 5730 5737 5746 5753 5758 5765 5771 5777 5781 5784 5792 5794 5794 5795 5803 5806 5814 5820 5828 5833 5837 5843 5847 5850 5854 5858 5861 5864
5570 5571 5576 5581 5592 5609 5624 5636 5647 5658 5671 5681 5693 5702 5709 5719 5727 5736 5743 5751 5757 5763 5769 5776 5780 5783 5787 5790 5790 5795 5799 5806 5813 5820 5826 5831 5836 5840 5845 5848 5853 5856 5860
5560 5560 5561 5565 5571 5587 5605 5618 5631 5643 5655 5666 5677 5687 5697 5707 5717 5727 5735 5742 5748 5754 5764 5771 5774 5777 5781 5784 5785 5790 5794 5801 5805 5813 5819 5824 5829 5833 5837 5842 5846 5850 5854
5554 5551 5551 5551 5554 5564 5581 5600 5614 5628 5640 5651 5661 5672 5685 5697 5704 5717 5726 5733 5740 5747 5757 5759 5764 5772 5774 5776 5779 5783 5787 5793 5798 5805 5812 5816 5820 5826 5829 5833 5838 5844 5847
5547 5544 5543 5542 5543 5546 5560 5579 5597 5611 5625 5638 5649 5659 5670 5684 5693 5704 5715 5722 5730 5739 5747 5754 5760 5757 5766 5770 5773 5778 5782 5786 5791 5798 5804 5807 5813 5818 5822 5826 5831 5836 5841